Year,Month,Day,Hour,Minute,Value (Times are PST for temperature in C)
2008,05,18,00,00,17.90
2008,05,18,00,01,17.80
2008,05,18,00,02,17.80
2008,05,18,00,03,17.70
2008,05,18,00,04,17.60
2008,05,18,00,05,17.50
2008,05,18,00,06,17.50
2008,05,18,00,07,17.50
2008,05,18,00,08,17.40
2008,05,18,00,09,17.40
2008,05,18,00,10,17.30
2008,05,18,00,11,17.20
2008,05,18,00,12,17.20
2008,05,18,00,13,17.10
2008,05,18,00,14,17.10
2008,05,18,00,15,17.20
2008,05,18,00,16,17.30
2008,05,18,00,17,17.30
2008,05,18,00,18,17.30
2008,05,18,00,19,17.30
2008,05,18,00,20,17.30
2008,05,18,00,21,17.20
2008,05,18,00,22,17.20
2008,05,18,00,23,17.10
2008,05,18,00,24,17.00
2008,05,18,00,25,16.90
2008,05,18,00,26,16.80
2008,05,18,00,27,16.70
2008,05,18,00,28,16.70
2008,05,18,00,29,16.70
2008,05,18,00,30,16.70
2008,05,18,00,31,16.70
2008,05,18,00,32,16.70
2008,05,18,00,33,16.70
2008,05,18,00,34,16.80
2008,05,18,00,35,16.90
2008,05,18,00,36,16.90
2008,05,18,00,37,16.90
2008,05,18,00,38,16.90
2008,05,18,00,39,16.80
2008,05,18,00,40,16.80
2008,05,18,00,41,16.70
2008,05,18,00,42,16.70
2008,05,18,00,43,16.70
2008,05,18,00,44,16.70
2008,05,18,00,45,16.80
2008,05,18,00,46,16.80
2008,05,18,00,47,16.90
2008,05,18,00,48,17.00
2008,05,18,00,49,17.10
2008,05,18,00,50,17.20
2008,05,18,00,51,17.20
2008,05,18,00,52,17.30
2008,05,18,00,53,17.30
2008,05,18,00,54,17.30
2008,05,18,00,55,17.30
2008,05,18,00,56,17.30
2008,05,18,00,57,17.30
2008,05,18,00,58,17.40
2008,05,18,00,59,17.30
2008,05,18,01,00,17.30
2008,05,18,01,01,17.40
2008,05,18,01,02,17.40
2008,05,18,01,03,17.50
2008,05,18,01,04,17.50
2008,05,18,01,05,17.60
2008,05,18,01,06,17.60
2008,05,18,01,07,17.70
2008,05,18,01,08,17.80
2008,05,18,01,09,17.90
2008,05,18,01,10,17.90
2008,05,18,01,11,17.90
2008,05,18,01,12,17.90
2008,05,18,01,13,17.90
2008,05,18,01,14,17.90
2008,05,18,01,15,18.00
2008,05,18,01,16,18.00
2008,05,18,01,17,17.90
2008,05,18,01,18,17.90
2008,05,18,01,19,17.90
2008,05,18,01,20,17.90
2008,05,18,01,21,18.00
2008,05,18,01,22,18.00
2008,05,18,01,23,18.00
2008,05,18,01,24,18.10
2008,05,18,01,25,18.10
2008,05,18,01,26,18.10
2008,05,18,01,27,18.10
2008,05,18,01,28,18.10
2008,05,18,01,29,18.00
2008,05,18,01,30,18.00
2008,05,18,01,31,18.10
2008,05,18,01,32,18.10
2008,05,18,01,33,18.10
2008,05,18,01,34,18.10
2008,05,18,01,35,18.10
2008,05,18,01,36,18.20
2008,05,18,01,37,18.20
2008,05,18,01,38,18.20
2008,05,18,01,39,18.10
2008,05,18,01,40,18.10
2008,05,18,01,41,18.10
2008,05,18,01,42,18.10
2008,05,18,01,43,18.10
2008,05,18,01,44,18.10
2008,05,18,01,45,18.10
2008,05,18,01,46,18.10
2008,05,18,01,47,18.10
2008,05,18,01,48,18.00
2008,05,18,01,49,18.00
2008,05,18,01,50,18.00
2008,05,18,01,51,18.00
2008,05,18,01,52,18.00
2008,05,18,01,53,18.00
2008,05,18,01,54,18.00
2008,05,18,01,55,18.00
2008,05,18,01,56,18.00
2008,05,18,01,57,18.00
2008,05,18,01,58,18.00
2008,05,18,01,59,18.00
2008,05,18,02,00,18.00
2008,05,18,02,01,17.90
2008,05,18,02,02,17.90
2008,05,18,02,03,17.90
2008,05,18,02,04,17.90
2008,05,18,02,05,17.90
2008,05,18,02,06,17.90
2008,05,18,02,07,17.90
2008,05,18,02,08,17.90
2008,05,18,02,09,17.90
2008,05,18,02,10,17.80
2008,05,18,02,11,17.80
2008,05,18,02,12,17.70
2008,05,18,02,13,17.70
2008,05,18,02,14,17.60
2008,05,18,02,15,17.70
2008,05,18,02,16,17.80
2008,05,18,02,17,17.90
2008,05,18,02,18,17.90
2008,05,18,02,19,18.00
2008,05,18,02,20,18.10
2008,05,18,02,21,18.10
2008,05,18,02,22,18.10
2008,05,18,02,23,18.10
2008,05,18,02,24,18.10
2008,05,18,02,25,18.10
2008,05,18,02,26,18.10
2008,05,18,02,27,18.10
2008,05,18,02,28,18.10
2008,05,18,02,29,18.10
2008,05,18,02,30,18.10
2008,05,18,02,31,18.00
2008,05,18,02,32,18.00
2008,05,18,02,33,17.90
2008,05,18,02,34,17.90
2008,05,18,02,35,17.80
2008,05,18,02,36,17.70
2008,05,18,02,37,17.50
2008,05,18,02,38,17.40
2008,05,18,02,39,17.30
2008,05,18,02,40,17.20
2008,05,18,02,41,17.10
2008,05,18,02,42,17.00
2008,05,18,02,43,16.90
2008,05,18,02,44,16.80
2008,05,18,02,45,16.80
2008,05,18,02,46,16.80
2008,05,18,02,47,16.80
2008,05,18,02,48,16.90
2008,05,18,02,49,16.90
2008,05,18,02,50,16.90
2008,05,18,02,51,17.00
2008,05,18,02,52,17.10
2008,05,18,02,53,17.20
2008,05,18,02,54,17.30
2008,05,18,02,55,17.40
2008,05,18,02,56,17.50
2008,05,18,02,57,17.60
2008,05,18,02,58,17.60
2008,05,18,02,59,17.60
2008,05,18,03,00,17.60
2008,05,18,03,01,17.60
2008,05,18,03,02,17.70
2008,05,18,03,03,17.70
2008,05,18,03,04,17.80
2008,05,18,03,05,17.80
2008,05,18,03,06,17.80
2008,05,18,03,07,17.80
2008,05,18,03,08,17.80
2008,05,18,03,09,17.90
2008,05,18,03,10,17.90
2008,05,18,03,11,17.80
2008,05,18,03,12,17.90
2008,05,18,03,13,17.90
2008,05,18,03,14,17.90
2008,05,18,03,15,17.90
2008,05,18,03,16,17.90
2008,05,18,03,17,18.00
2008,05,18,03,18,18.00
2008,05,18,03,19,18.00
2008,05,18,03,20,18.00
2008,05,18,03,21,18.10
2008,05,18,03,22,18.10
2008,05,18,03,23,18.00
2008,05,18,03,24,18.00
2008,05,18,03,25,18.00
2008,05,18,03,26,17.90
2008,05,18,03,27,17.90
2008,05,18,03,28,17.90
2008,05,18,03,29,17.80
2008,05,18,03,30,17.80
2008,05,18,03,31,17.70
2008,05,18,03,32,17.70
2008,05,18,03,33,17.60
2008,05,18,03,34,17.50
2008,05,18,03,35,17.40
2008,05,18,03,36,17.30
2008,05,18,03,37,17.30
2008,05,18,03,38,17.10
2008,05,18,03,39,17.10
2008,05,18,03,40,17.00
2008,05,18,03,41,17.00
2008,05,18,03,42,17.10
2008,05,18,03,43,17.20
2008,05,18,03,44,17.20
2008,05,18,03,45,17.20
2008,05,18,03,46,17.30
2008,05,18,03,47,17.30
2008,05,18,03,48,17.30
2008,05,18,03,49,17.30
2008,05,18,03,50,17.30
2008,05,18,03,51,17.30
2008,05,18,03,52,17.40
2008,05,18,03,53,17.40
2008,05,18,03,54,17.50
2008,05,18,03,55,17.50
2008,05,18,03,56,17.50
2008,05,18,03,57,17.50
2008,05,18,03,58,17.50
2008,05,18,03,59,17.40
2008,05,18,04,00,17.40
2008,05,18,04,01,17.40
2008,05,18,04,02,17.40
2008,05,18,04,03,17.40
2008,05,18,04,04,17.40
2008,05,18,04,05,17.40
2008,05,18,04,06,16.90
2008,05,18,04,07,16.80
2008,05,18,04,08,16.70
2008,05,18,04,09,16.60
2008,05,18,04,10,16.50
2008,05,18,04,11,16.50
2008,05,18,04,12,16.30
2008,05,18,04,13,16.30
2008,05,18,04,14,16.20
2008,05,18,04,15,16.10
2008,05,18,04,16,16.10
2008,05,18,04,17,16.00
2008,05,18,04,18,15.90
2008,05,18,04,19,15.90
2008,05,18,04,20,15.90
2008,05,18,04,21,15.80
2008,05,18,04,22,15.80
2008,05,18,04,23,15.70
2008,05,18,04,24,15.70
2008,05,18,04,25,15.60
2008,05,18,04,26,15.60
2008,05,18,04,27,15.50
2008,05,18,04,28,15.40
2008,05,18,04,29,15.30
2008,05,18,04,30,15.30
2008,05,18,04,31,15.20
2008,05,18,04,32,15.10
2008,05,18,04,33,15.10
2008,05,18,04,34,15.00
2008,05,18,04,35,15.00
2008,05,18,04,36,15.00
2008,05,18,04,37,15.00
2008,05,18,04,38,14.90
2008,05,18,04,39,14.90
2008,05,18,04,40,14.90
2008,05,18,04,41,14.90
2008,05,18,04,42,14.90
2008,05,18,04,43,14.90
2008,05,18,04,44,14.90
2008,05,18,04,45,15.00
2008,05,18,04,46,15.00
2008,05,18,04,47,14.90
2008,05,18,04,48,15.00
2008,05,18,04,49,15.00
2008,05,18,04,50,14.90
2008,05,18,04,51,14.90
2008,05,18,04,52,14.80
2008,05,18,04,53,14.80
2008,05,18,04,54,14.80
2008,05,18,04,55,14.80
2008,05,18,04,56,14.70
2008,05,18,04,57,14.70
2008,05,18,04,58,14.70
2008,05,18,04,59,14.60
2008,05,18,05,00,14.60
2008,05,18,05,01,14.50
2008,05,18,05,02,14.50
2008,05,18,05,03,14.40
2008,05,18,05,04,14.40
2008,05,18,05,05,14.30
2008,05,18,05,06,14.30
2008,05,18,05,07,14.20
2008,05,18,05,08,14.20
2008,05,18,05,09,14.20
2008,05,18,05,10,14.10
2008,05,18,05,11,14.10
2008,05,18,05,12,14.00
2008,05,18,05,13,13.90
2008,05,18,05,14,13.90
2008,05,18,05,15,13.90
2008,05,18,05,16,13.80
2008,05,18,05,17,13.80
2008,05,18,05,18,13.80
2008,05,18,05,19,13.70
2008,05,18,05,20,13.70
2008,05,18,05,21,13.60
2008,05,18,05,22,13.60
2008,05,18,05,23,13.60
2008,05,18,05,24,13.60
2008,05,18,05,25,13.50
2008,05,18,05,26,13.50
2008,05,18,05,27,13.50
2008,05,18,05,28,13.40
2008,05,18,05,29,13.40
2008,05,18,05,30,13.40
2008,05,18,05,31,13.40
2008,05,18,05,32,13.30
2008,05,18,05,33,13.30
2008,05,18,05,34,13.30
2008,05,18,05,35,13.30
2008,05,18,05,36,13.30
2008,05,18,05,37,13.20
2008,05,18,05,38,13.20
2008,05,18,05,39,13.20
2008,05,18,05,40,13.20
2008,05,18,05,41,13.10
2008,05,18,05,42,13.10
2008,05,18,05,43,13.10
2008,05,18,05,44,13.10
2008,05,18,05,45,13.00
2008,05,18,05,46,13.00
2008,05,18,05,47,12.90
2008,05,18,05,48,12.90
2008,05,18,05,49,12.90
2008,05,18,05,50,12.80
2008,05,18,05,51,12.80
2008,05,18,05,52,12.80
2008,05,18,05,53,12.70
2008,05,18,05,54,12.70
2008,05,18,05,55,12.70
2008,05,18,05,56,12.60
2008,05,18,05,57,12.60
2008,05,18,05,58,12.60
2008,05,18,05,59,12.50
2008,05,18,06,00,12.50
2008,05,18,06,01,12.50
2008,05,18,06,02,12.40
2008,05,18,06,03,12.40
2008,05,18,06,04,12.40
2008,05,18,06,05,12.40
2008,05,18,06,06,12.30
2008,05,18,06,07,12.30
2008,05,18,06,08,12.30
2008,05,18,06,09,12.30
2008,05,18,06,10,12.30
2008,05,18,06,11,12.30
2008,05,18,06,12,12.20
2008,05,18,06,13,12.20
2008,05,18,06,14,12.20
2008,05,18,06,15,12.20
2008,05,18,06,16,12.20
2008,05,18,06,17,12.20
2008,05,18,06,18,12.20
2008,05,18,06,19,12.20
2008,05,18,06,20,12.20
2008,05,18,06,21,12.10
2008,05,18,06,22,12.10
2008,05,18,06,23,12.10
2008,05,18,06,24,12.10
2008,05,18,06,25,12.10
2008,05,18,06,26,12.10
2008,05,18,06,27,12.10
2008,05,18,06,28,12.10
2008,05,18,06,29,12.10
2008,05,18,06,30,12.10
2008,05,18,06,31,12.10
2008,05,18,06,32,12.10
2008,05,18,06,33,12.10
2008,05,18,06,34,12.10
2008,05,18,06,35,12.10
2008,05,18,06,36,12.10
2008,05,18,06,37,12.10
2008,05,18,06,38,12.10
2008,05,18,06,39,12.10
2008,05,18,06,40,12.20
2008,05,18,06,41,12.20
2008,05,18,06,42,12.20
2008,05,18,06,43,12.20
2008,05,18,06,44,12.20
2008,05,18,06,45,12.30
2008,05,18,06,46,12.30
2008,05,18,06,47,12.40
2008,05,18,06,48,12.40
2008,05,18,06,49,12.40
2008,05,18,06,50,12.50
2008,05,18,06,51,12.50
2008,05,18,06,52,12.50
2008,05,18,06,53,12.60
2008,05,18,06,54,12.70
2008,05,18,06,55,12.70
2008,05,18,06,56,12.90
2008,05,18,06,57,13.00
2008,05,18,06,58,13.10
2008,05,18,06,59,13.20
2008,05,18,07,00,13.20
2008,05,18,07,01,13.30
2008,05,18,07,02,13.30
2008,05,18,07,03,13.30
2008,05,18,07,04,13.30
2008,05,18,07,05,13.30
2008,05,18,07,06,13.30
2008,05,18,07,07,13.40
2008,05,18,07,08,13.40
2008,05,18,07,09,13.40
2008,05,18,07,10,13.40
2008,05,18,07,11,13.40
2008,05,18,07,12,13.40
2008,05,18,07,13,13.50
2008,05,18,07,14,13.50
2008,05,18,07,15,13.50
2008,05,18,07,16,13.50
2008,05,18,07,17,13.60
2008,05,18,07,18,13.60
2008,05,18,07,19,13.60
2008,05,18,07,20,13.70
2008,05,18,07,21,13.80
2008,05,18,07,22,13.90
2008,05,18,07,23,13.90
2008,05,18,07,24,14.10
2008,05,18,07,25,14.20
2008,05,18,07,26,14.40
2008,05,18,07,27,14.50
2008,05,18,07,28,14.60
2008,05,18,07,29,14.70
2008,05,18,07,30,14.80
2008,05,18,07,31,14.90
2008,05,18,07,32,15.00
2008,05,18,07,33,15.00
2008,05,18,07,34,15.00
2008,05,18,07,35,15.10
2008,05,18,07,36,15.20
2008,05,18,07,37,15.30
2008,05,18,07,38,15.30
2008,05,18,07,39,15.40
2008,05,18,07,40,15.50
2008,05,18,07,41,15.60
2008,05,18,07,42,15.70
2008,05,18,07,43,15.80
2008,05,18,07,44,15.90
2008,05,18,07,45,16.00
2008,05,18,07,46,16.10
2008,05,18,07,47,16.20
2008,05,18,07,48,16.30
2008,05,18,07,49,16.30
2008,05,18,07,50,16.50
2008,05,18,07,51,16.50
2008,05,18,07,52,16.70
2008,05,18,07,53,16.70
2008,05,18,07,54,16.90
2008,05,18,07,55,17.00
2008,05,18,07,56,17.10
2008,05,18,07,57,17.20
2008,05,18,07,58,17.20
2008,05,18,07,59,17.30
2008,05,18,08,00,17.40
2008,05,18,08,01,17.40
2008,05,18,08,02,17.50
2008,05,18,08,03,17.60
2008,05,18,08,04,17.70
2008,05,18,08,05,17.80
2008,05,18,08,06,17.90
2008,05,18,08,07,18.00
2008,05,18,08,08,18.10
2008,05,18,08,09,18.30
2008,05,18,08,10,18.30
2008,05,18,08,11,18.40
2008,05,18,08,12,18.40
2008,05,18,08,13,18.50
2008,05,18,08,14,18.60
2008,05,18,08,15,18.60
2008,05,18,08,16,18.60
2008,05,18,08,17,18.60
2008,05,18,08,18,18.60
2008,05,18,08,19,18.50
2008,05,18,08,20,18.50
2008,05,18,08,21,18.40
2008,05,18,08,22,18.40
2008,05,18,08,23,18.40
2008,05,18,08,24,18.40
2008,05,18,08,25,18.50
2008,05,18,08,26,18.40
2008,05,18,08,27,18.40
2008,05,18,08,28,18.40
2008,05,18,08,29,18.40
2008,05,18,08,30,18.40
2008,05,18,08,31,18.40
2008,05,18,08,32,18.40
2008,05,18,08,33,18.40
2008,05,18,08,34,18.50
2008,05,18,08,35,18.50
2008,05,18,08,36,18.50
2008,05,18,08,37,18.50
2008,05,18,08,38,18.40
2008,05,18,08,39,18.40
2008,05,18,08,40,18.40
2008,05,18,08,41,18.50
2008,05,18,08,42,18.50
2008,05,18,08,43,18.60
2008,05,18,08,44,18.60
2008,05,18,08,45,18.70
2008,05,18,08,46,18.70
2008,05,18,08,47,18.80
2008,05,18,08,48,18.80
2008,05,18,08,49,18.90
2008,05,18,08,50,18.90
2008,05,18,08,51,18.90
2008,05,18,08,52,19.00
2008,05,18,08,53,19.00
2008,05,18,08,54,19.10
2008,05,18,08,55,19.20
2008,05,18,08,56,19.20
2008,05,18,08,57,19.30
2008,05,18,08,58,19.30
2008,05,18,08,59,19.40
2008,05,18,09,00,19.50
2008,05,18,09,01,19.60
2008,05,18,09,02,19.70
2008,05,18,09,03,19.70
2008,05,18,09,04,19.80
2008,05,18,09,05,19.80
2008,05,18,09,06,19.80
2008,05,18,09,07,19.80
2008,05,18,09,08,19.80
2008,05,18,09,09,19.80
2008,05,18,09,10,19.70
2008,05,18,09,11,19.80
2008,05,18,09,12,19.80
2008,05,18,09,13,19.70
2008,05,18,09,14,19.70
2008,05,18,09,15,19.80
2008,05,18,09,16,19.80
2008,05,18,09,17,19.90
2008,05,18,09,18,19.90
2008,05,18,09,19,20.00
2008,05,18,09,20,20.00
2008,05,18,09,21,20.00
2008,05,18,09,22,19.90
2008,05,18,09,23,19.90
2008,05,18,09,24,19.90
2008,05,18,09,25,19.90
2008,05,18,09,26,20.00
2008,05,18,09,27,20.10
2008,05,18,09,28,20.10
2008,05,18,09,29,20.10
2008,05,18,09,30,20.10
2008,05,18,09,31,20.10
2008,05,18,09,32,20.10
2008,05,18,09,33,20.10
2008,05,18,09,34,20.20
2008,05,18,09,35,20.30
2008,05,18,09,36,20.30
2008,05,18,09,37,20.20
2008,05,18,09,38,20.10
2008,05,18,09,39,20.00
2008,05,18,09,40,20.00
2008,05,18,09,41,19.90
2008,05,18,09,42,19.90
2008,05,18,09,43,20.00
2008,05,18,09,44,20.00
2008,05,18,09,45,19.90
2008,05,18,09,46,19.80
2008,05,18,09,47,19.90
2008,05,18,09,48,19.90
2008,05,18,09,49,19.90
2008,05,18,09,50,19.90
2008,05,18,09,51,19.90
2008,05,18,09,52,19.90
2008,05,18,09,53,20.00
2008,05,18,09,54,20.10
2008,05,18,09,55,20.20
2008,05,18,09,56,20.40
2008,05,18,09,57,20.50
2008,05,18,09,58,20.60
2008,05,18,09,59,20.60
2008,05,18,10,00,20.70
2008,05,18,10,01,20.80
2008,05,18,10,02,20.80
2008,05,18,10,03,20.80
2008,05,18,10,04,20.80
2008,05,18,10,05,20.90
2008,05,18,10,06,21.00
2008,05,18,10,07,21.00
2008,05,18,10,08,21.10
2008,05,18,10,09,21.10
2008,05,18,10,10,21.00
2008,05,18,10,11,20.90
2008,05,18,10,12,21.00
2008,05,18,10,13,20.90
2008,05,18,10,14,20.80
2008,05,18,10,15,20.80
2008,05,18,10,16,20.80
2008,05,18,10,17,20.80
2008,05,18,10,18,20.80
2008,05,18,10,19,20.70
2008,05,18,10,20,20.60
2008,05,18,10,21,20.50
2008,05,18,10,22,20.40
2008,05,18,10,23,20.40
2008,05,18,10,24,20.40
2008,05,18,10,25,20.40
2008,05,18,10,26,20.40
2008,05,18,10,27,20.40
2008,05,18,10,28,20.40
2008,05,18,10,29,20.40
2008,05,18,10,30,20.50
2008,05,18,10,31,20.60
2008,05,18,10,32,20.60
2008,05,18,10,33,20.70
2008,05,18,10,34,20.70
2008,05,18,10,35,20.70
2008,05,18,10,36,20.70
2008,05,18,10,37,20.80
2008,05,18,10,38,20.80
2008,05,18,10,39,20.80
2008,05,18,10,40,20.80
2008,05,18,10,41,20.80
2008,05,18,10,42,20.70
2008,05,18,10,43,20.70
2008,05,18,10,44,20.70
2008,05,18,10,45,20.70
2008,05,18,10,46,20.70
2008,05,18,10,47,20.70
2008,05,18,10,48,20.80
2008,05,18,10,49,20.80
2008,05,18,10,50,20.80
2008,05,18,10,51,20.80
2008,05,18,10,52,20.80
2008,05,18,10,53,20.70
2008,05,18,10,54,20.70
2008,05,18,10,55,20.60
2008,05,18,10,56,20.60
2008,05,18,10,57,20.60
2008,05,18,10,58,20.60
2008,05,18,10,59,20.40
2008,05,18,11,00,20.40
2008,05,18,11,01,20.30
2008,05,18,11,02,20.20
2008,05,18,11,03,20.20
2008,05,18,11,04,20.30
2008,05,18,11,05,20.30
2008,05,18,11,06,20.40
2008,05,18,11,07,20.40
2008,05,18,11,08,20.40
2008,05,18,11,09,20.40
2008,05,18,11,10,20.50
2008,05,18,11,11,20.60
2008,05,18,11,12,20.70
2008,05,18,11,13,20.80
2008,05,18,11,14,20.80
2008,05,18,11,15,20.80
2008,05,18,11,16,20.80
2008,05,18,11,17,20.80
2008,05,18,11,18,20.70
2008,05,18,11,19,20.80
2008,05,18,11,20,20.70
2008,05,18,11,21,20.60
2008,05,18,11,22,20.50
2008,05,18,11,23,20.50
2008,05,18,11,24,20.40
2008,05,18,11,25,20.40
2008,05,18,11,26,20.30
2008,05,18,11,27,20.40
2008,05,18,11,28,20.30
2008,05,18,11,29,20.30
2008,05,18,11,30,20.30
2008,05,18,11,31,20.40
2008,05,18,11,32,20.40
2008,05,18,11,33,20.40
2008,05,18,11,34,20.50
2008,05,18,11,35,20.50
2008,05,18,11,36,20.50
2008,05,18,11,37,20.50
2008,05,18,11,38,20.40
2008,05,18,11,39,20.40
2008,05,18,11,40,20.40
2008,05,18,11,41,20.40
2008,05,18,11,42,20.40
2008,05,18,11,43,20.50
2008,05,18,11,44,20.60
2008,05,18,11,45,20.60
2008,05,18,11,46,20.60
2008,05,18,11,47,20.50
2008,05,18,11,48,20.40
2008,05,18,11,49,20.40
2008,05,18,11,50,20.30
2008,05,18,11,51,20.40
2008,05,18,11,52,20.60
2008,05,18,11,53,20.70
2008,05,18,11,54,20.80
2008,05,18,11,55,20.80
2008,05,18,11,56,20.80
2008,05,18,11,57,20.90
2008,05,18,11,58,21.00
2008,05,18,11,59,21.10
2008,05,18,12,00,21.10
2008,05,18,12,01,21.10
2008,05,18,12,02,21.10
2008,05,18,12,03,21.10
2008,05,18,12,04,21.10
2008,05,18,12,05,21.10
2008,05,18,12,06,21.20
2008,05,18,12,07,21.30
2008,05,18,12,08,21.30
2008,05,18,12,09,21.30
2008,05,18,12,10,21.30
2008,05,18,12,11,21.40
2008,05,18,12,12,21.40
2008,05,18,12,13,21.30
2008,05,18,12,14,21.20
2008,05,18,12,15,21.20
2008,05,18,12,16,21.30
2008,05,18,12,17,21.30
2008,05,18,12,18,21.40
2008,05,18,12,19,21.40
2008,05,18,12,20,21.50
2008,05,18,12,21,21.50
2008,05,18,12,22,21.60
2008,05,18,12,23,21.60
2008,05,18,12,24,21.70
2008,05,18,12,25,21.70
2008,05,18,12,26,21.70
2008,05,18,12,27,21.70
2008,05,18,12,28,21.70
2008,05,18,12,29,21.60
2008,05,18,12,30,21.50
2008,05,18,12,31,21.30
2008,05,18,12,32,21.10
2008,05,18,12,33,21.00
2008,05,18,12,34,21.00
2008,05,18,12,35,21.00
2008,05,18,12,36,20.90
2008,05,18,12,37,20.90
2008,05,18,12,38,20.80
2008,05,18,12,39,20.80
2008,05,18,12,40,20.80
2008,05,18,12,41,20.90
2008,05,18,12,42,20.90
2008,05,18,12,43,20.80
2008,05,18,12,44,20.60
2008,05,18,12,45,20.40
2008,05,18,12,46,20.30
2008,05,18,12,47,20.30
2008,05,18,12,48,20.30
2008,05,18,12,49,20.40
2008,05,18,12,50,20.40
2008,05,18,12,51,20.40
2008,05,18,12,52,20.40
2008,05,18,12,53,20.40
2008,05,18,12,54,20.40
2008,05,18,12,55,20.40
2008,05,18,12,56,20.40
2008,05,18,12,57,20.30
2008,05,18,12,58,20.20
2008,05,18,12,59,20.00
2008,05,18,13,00,19.90
2008,05,18,13,01,19.90
2008,05,18,13,02,19.80
2008,05,18,13,03,19.80
2008,05,18,13,04,19.80
2008,05,18,13,05,19.90
2008,05,18,13,06,19.90
2008,05,18,13,07,20.00
2008,05,18,13,08,20.10
2008,05,18,13,09,20.20
2008,05,18,13,10,20.30
2008,05,18,13,11,20.30
2008,05,18,13,12,20.30
2008,05,18,13,13,20.40
2008,05,18,13,14,20.40
2008,05,18,13,15,20.30
2008,05,18,13,16,20.30
2008,05,18,13,17,20.20
2008,05,18,13,18,20.20
2008,05,18,13,19,20.20
2008,05,18,13,20,20.20
2008,05,18,13,21,20.10
2008,05,18,13,22,20.10
2008,05,18,13,23,20.10
2008,05,18,13,24,20.20
2008,05,18,13,25,20.20
2008,05,18,13,26,20.20
2008,05,18,13,27,20.30
2008,05,18,13,28,20.30
2008,05,18,13,29,20.40
2008,05,18,13,30,20.40
2008,05,18,13,31,20.40
2008,05,18,13,32,20.40
2008,05,18,13,33,20.30
2008,05,18,13,34,20.30
2008,05,18,13,35,20.30
2008,05,18,13,36,20.30
2008,05,18,13,37,20.30
2008,05,18,13,38,20.30
2008,05,18,13,39,20.30
2008,05,18,13,40,20.40
2008,05,18,13,41,20.40
2008,05,18,13,42,20.40
2008,05,18,13,43,20.50
2008,05,18,13,44,20.50
2008,05,18,13,45,20.60
2008,05,18,13,46,20.70
2008,05,18,13,47,20.70
2008,05,18,13,48,20.80
2008,05,18,13,49,21.00
2008,05,18,13,50,21.10
2008,05,18,13,51,21.10
2008,05,18,13,52,21.20
2008,05,18,13,53,21.20
2008,05,18,13,54,21.30
2008,05,18,13,55,21.40
2008,05,18,13,56,21.40
2008,05,18,13,57,21.40
2008,05,18,13,58,21.40
2008,05,18,13,59,21.30
2008,05,18,14,00,21.20
2008,05,18,14,01,21.20
2008,05,18,14,02,21.20
2008,05,18,14,03,21.20
2008,05,18,14,04,21.20
2008,05,18,14,05,21.20
2008,05,18,14,06,21.10
2008,05,18,14,07,21.10
2008,05,18,14,08,21.10
2008,05,18,14,09,21.00
2008,05,18,14,10,21.00
2008,05,18,14,11,21.00
2008,05,18,14,12,21.10
2008,05,18,14,13,21.10
2008,05,18,14,14,21.00
2008,05,18,14,15,20.90
2008,05,18,14,16,20.80
2008,05,18,14,17,20.60
2008,05,18,14,18,20.50
2008,05,18,14,19,20.50
2008,05,18,14,20,20.40
2008,05,18,14,21,20.40
2008,05,18,14,22,20.40
2008,05,18,14,23,20.40
2008,05,18,14,24,20.50
2008,05,18,14,25,20.60
2008,05,18,14,26,20.70
2008,05,18,14,27,20.80
2008,05,18,14,28,20.90
2008,05,18,14,29,21.00
2008,05,18,14,30,21.20
2008,05,18,14,31,21.20
2008,05,18,14,32,21.20
2008,05,18,14,33,21.20
2008,05,18,14,34,21.20
2008,05,18,14,35,21.10
2008,05,18,14,36,21.00
2008,05,18,14,37,21.00
2008,05,18,14,38,21.10
2008,05,18,14,39,21.20
2008,05,18,14,40,21.20
2008,05,18,14,41,21.20
2008,05,18,14,42,21.20
2008,05,18,14,43,21.20
2008,05,18,14,44,21.20
2008,05,18,14,45,21.30
2008,05,18,14,46,21.30
2008,05,18,14,47,21.30
2008,05,18,14,48,21.30
2008,05,18,14,49,21.30
2008,05,18,14,50,21.30
2008,05,18,14,51,21.30
2008,05,18,14,52,21.40
2008,05,18,14,53,21.40
2008,05,18,14,54,21.50
2008,05,18,14,55,21.50
2008,05,18,14,56,21.70
2008,05,18,14,57,21.70
2008,05,18,14,58,21.80
2008,05,18,14,59,21.90
2008,05,18,15,00,22.10
2008,05,18,15,01,22.20
2008,05,18,15,02,22.40
2008,05,18,15,03,22.40
2008,05,18,15,04,22.50
2008,05,18,15,05,22.40
2008,05,18,15,06,22.40
2008,05,18,15,07,22.20
2008,05,18,15,08,22.20
2008,05,18,15,09,22.20
2008,05,18,15,10,22.20
2008,05,18,15,11,22.20
2008,05,18,15,12,22.30
2008,05,18,15,13,22.40
2008,05,18,15,14,22.40
2008,05,18,15,15,22.50
2008,05,18,15,16,22.50
2008,05,18,15,17,22.60
2008,05,18,15,18,22.60
2008,05,18,15,19,22.60
2008,05,18,15,20,22.60
2008,05,18,15,21,22.50
2008,05,18,15,22,22.40
2008,05,18,15,23,22.20
2008,05,18,15,24,22.10
2008,05,18,15,25,22.00
2008,05,18,15,26,21.80
2008,05,18,15,27,21.70
2008,05,18,15,28,21.60
2008,05,18,15,29,21.60
2008,05,18,15,30,21.60
2008,05,18,15,31,21.60
2008,05,18,15,32,21.50
2008,05,18,15,33,21.40
2008,05,18,15,34,21.40
2008,05,18,15,35,21.30
2008,05,18,15,36,21.30
2008,05,18,15,37,21.30
2008,05,18,15,38,21.30
2008,05,18,15,39,21.20
2008,05,18,15,40,21.10
2008,05,18,15,41,21.10
2008,05,18,15,42,21.00
2008,05,18,15,43,20.90
2008,05,18,15,44,20.90
2008,05,18,15,45,21.00
2008,05,18,15,46,21.00
2008,05,18,15,47,21.10
2008,05,18,15,48,21.10
2008,05,18,15,49,21.20
2008,05,18,15,50,21.20
2008,05,18,15,51,21.20
2008,05,18,15,52,21.20
2008,05,18,15,53,21.20
2008,05,18,15,54,21.20
2008,05,18,15,55,21.30
2008,05,18,15,56,21.30
2008,05,18,15,57,21.30
2008,05,18,15,58,21.30
2008,05,18,15,59,21.30
2008,05,18,16,00,21.40
2008,05,18,16,01,21.30
2008,05,18,16,02,21.30
2008,05,18,16,03,21.40
2008,05,18,16,04,21.40
2008,05,18,16,05,21.50
2008,05,18,16,06,21.60
2008,05,18,16,07,21.60
2008,05,18,16,08,21.60
2008,05,18,16,09,21.60
2008,05,18,16,10,21.50
2008,05,18,16,11,21.50
2008,05,18,16,12,21.50
2008,05,18,16,13,21.40
2008,05,18,16,14,21.40
2008,05,18,16,15,21.40
2008,05,18,16,16,21.50
2008,05,18,16,17,21.50
2008,05,18,16,18,21.50
2008,05,18,16,19,21.40
2008,05,18,16,20,21.40
2008,05,18,16,21,21.50
2008,05,18,16,22,21.50
2008,05,18,16,23,21.50
2008,05,18,16,24,21.50
2008,05,18,16,25,21.60
2008,05,18,16,26,21.60
2008,05,18,16,27,21.50
2008,05,18,16,28,21.50
2008,05,18,16,29,21.50
2008,05,18,16,30,21.50
2008,05,18,16,31,21.50
2008,05,18,16,32,21.50
2008,05,18,16,33,21.50
2008,05,18,16,34,21.50
2008,05,18,16,35,21.50
2008,05,18,16,36,21.50
2008,05,18,16,37,21.50
2008,05,18,16,38,21.50
2008,05,18,16,39,21.50
2008,05,18,16,40,21.50
2008,05,18,16,41,21.40
2008,05,18,16,42,21.40
2008,05,18,16,43,21.40
2008,05,18,16,44,21.40
2008,05,18,16,45,21.40
2008,05,18,16,46,21.40
2008,05,18,16,47,21.50
2008,05,18,16,48,21.50
2008,05,18,16,49,21.60
2008,05,18,16,50,21.60
2008,05,18,16,51,21.60
2008,05,18,16,52,21.70
2008,05,18,16,53,21.70
2008,05,18,16,54,21.80
2008,05,18,16,55,21.80
2008,05,18,16,56,21.80
2008,05,18,16,57,21.80
2008,05,18,16,58,21.80
2008,05,18,16,59,21.80
2008,05,18,17,00,21.80
2008,05,18,17,01,21.80
2008,05,18,17,02,21.80
2008,05,18,17,03,21.80
2008,05,18,17,04,21.80
2008,05,18,17,05,21.80
2008,05,18,17,06,21.80
2008,05,18,17,07,21.80
2008,05,18,17,08,21.90
2008,05,18,17,09,21.80
2008,05,18,17,10,21.80
2008,05,18,17,11,21.80
2008,05,18,17,12,21.70
2008,05,18,17,13,21.70
2008,05,18,17,14,21.60
2008,05,18,17,15,21.60
2008,05,18,17,16,21.70
2008,05,18,17,17,21.70
2008,05,18,17,18,21.80
2008,05,18,17,19,21.80